Time,TemperatureF,DewpointF,PressureIn,WindDirection,WindDirectionDegrees,WindSpeedMPH,WindSpeedGustMPH,Humidity,HourlyPrecipIn,Conditions,Clouds,dailyrainin,SoftwareType,DateUTC
2013-02-25 00:02:00,35.0,32.0,30.00,NNE,32,5.0,10.0,87,0.00,,,0.01,,2013-02-25 06:02:00,
2013-02-25 00:11:00,35.0,32.0,30.00,NNE,32,5.0,10.0,87,0.00,,,0.01,,2013-02-25 06:11:00,
2013-02-25 00:21:00,35.0,32.0,30.00,NNE,32,5.0,10.0,87,0.00,,,0.01,,2013-02-25 06:21:00,
2013-02-25 00:31:00,35.0,32.0,30.02,NNE,29,3.0,7.0,88,0.00,,,0.01,,2013-02-25 06:31:00,
2013-02-25 00:41:00,35.0,32.0,30.02,NNE,29,3.0,7.0,88,0.00,,,0.01,,2013-02-25 06:41:00,
2013-02-25 00:52:00,35.0,32.0,30.02,NNE,29,3.0,7.0,88,0.00,,,0.01,,2013-02-25 06:52:00,
2013-02-25 01:01:00,34.0,32.0,30.02,NE,45,2.0,6.0,91,0.00,,,0.01,,2013-02-25 07:01:00,
2013-02-25 01:11:00,34.0,32.0,30.01,WNW,293,2.0,5.0,92,0.00,,,0.01,,2013-02-25 07:11:00,
2013-02-25 01:21:00,34.0,32.0,30.01,WNW,293,2.0,5.0,92,0.00,,,0.01,,2013-02-25 07:21:00,
2013-02-25 01:31:00,34.0,32.0,30.01,WNW,293,2.0,5.0,92,0.00,,,0.01,,2013-02-25 07:31:00,
2013-02-25 01:41:00,34.0,32.0,30.01,WNW,293,2.0,5.0,92,0.00,,,0.01,,2013-02-25 07:41:00,
2013-02-25 01:52:00,33.0,31.0,30.01,NE,46,2.0,6.0,94,0.00,,,0.01,,2013-02-25 07:52:00,
2013-02-25 02:01:00,33.0,31.0,30.01,NE,54,2.0,6.0,94,0.00,,,0.01,,2013-02-25 08:01:00,
2013-02-25 02:11:00,33.0,31.0,30.02,NW,318,1.0,7.0,94,0.00,,,0.01,,2013-02-25 08:11:00,
2013-02-25 02:21:00,33.0,31.0,30.02,NW,318,1.0,7.0,94,0.00,,,0.01,,2013-02-25 08:21:00,
2013-02-25 02:31:00,33.0,32.0,30.01,NE,53,3.0,6.0,95,0.00,,,0.01,,2013-02-25 08:31:00,
2013-02-25 02:41:00,33.0,32.0,30.01,NE,53,3.0,6.0,95,0.00,,,0.01,,2013-02-25 08:41:00,
2013-02-25 02:52:00,33.0,32.0,30.01,NE,53,3.0,6.0,95,0.00,,,0.01,,2013-02-25 08:52:00,
2013-02-25 03:01:00,33.0,32.0,30.00,NE,40,6.0,9.0,95,0.00,,,0.01,,2013-02-25 09:01:00,
2013-02-25 03:12:00,33.0,32.0,30.00,NE,40,6.0,9.0,95,0.00,,,0.01,,2013-02-25 09:12:00,
2013-02-25 03:21:00,33.0,32.0,30.01,NNE,28,1.0,10.0,95,0.00,,,0.01,,2013-02-25 09:21:00,
2013-02-25 03:32:00,33.0,32.0,30.01,NNE,32,3.0,10.0,95,0.00,,,0.01,,2013-02-25 09:32:00,
2013-02-25 03:41:00,33.0,32.0,30.01,NNE,32,3.0,10.0,95,0.00,,,0.01,,2013-02-25 09:41:00,
2013-02-25 03:52:00,33.0,32.0,30.01,NNE,29,3.0,7.0,95,0.00,,,0.01,,2013-02-25 09:52:00,
2013-02-25 04:01:00,33.0,32.0,30.01,NNE,29,3.0,7.0,95,0.00,,,0.01,,2013-02-25 10:01:00,
2013-02-25 04:11:00,33.0,32.0,30.00,East,85,2.0,4.0,96,0.00,,,0.01,,2013-02-25 10:11:00,
2013-02-25 04:21:00,33.0,32.0,30.00,East,85,2.0,4.0,96,0.00,,,0.01,,2013-02-25 10:21:00,
2013-02-25 04:31:00,33.0,32.0,30.00,East,85,2.0,4.0,96,0.00,,,0.01,,2013-02-25 10:31:00,
2013-02-25 04:42:00,33.0,32.0,30.00,East,85,2.0,4.0,96,0.00,,,0.01,,2013-02-25 10:42:00,
2013-02-25 04:52:00,33.0,32.0,30.01,ENE,59,0.0,5.0,96,0.00,,,0.01,,2013-02-25 10:52:00,
2013-02-25 05:01:00,33.0,32.0,30.01,ENE,59,0.0,5.0,96,0.00,,,0.01,,2013-02-25 11:01:00,
2013-02-25 05:11:00,33.0,32.0,30.01,ENE,59,0.0,5.0,96,0.00,,,0.01,,2013-02-25 11:11:00,
2013-02-25 05:21:00,32.0,31.0,30.00,NE,46,2.0,7.0,95,0.00,,,0.01,,2013-02-25 11:21:00,
2013-02-25 05:32:00,32.0,31.0,29.99,NE,46,2.0,2.0,95,0.00,,,0.01,,2013-02-25 11:32:00,
2013-02-25 05:42:00,32.0,31.0,29.99,NE,46,2.0,2.0,95,0.00,,,0.01,,2013-02-25 11:42:00,
2013-02-25 05:52:00,32.0,31.0,29.98,NE,46,2.0,2.0,95,0.00,,,0.01,,2013-02-25 11:52:00,
2013-02-25 06:02:00,32.0,31.0,29.99,NE,46,2.0,2.0,95,0.00,,,0.01,,2013-02-25 12:02:00,
2013-02-25 06:11:00,32.0,31.0,29.99,NE,46,2.0,2.0,95,0.00,,,0.01,,2013-02-25 12:11:00,
2013-02-25 06:21:00,32.0,31.0,29.99,NE,46,2.0,2.0,95,0.00,,,0.01,,2013-02-25 12:21:00,
2013-02-25 06:32:00,32.0,31.0,29.99,NE,46,2.0,2.0,95,0.00,,,0.01,,2013-02-25 12:32:00,
2013-02-25 06:42:00,32.0,31.0,29.99,NE,46,2.0,2.0,95,0.00,,,0.01,,2013-02-25 12:42:00,
2013-02-25 06:55:00,32.0,31.0,29.99,NE,46,2.0,2.0,95,0.00,,,0.01,,2013-02-25 12:55:00,
2013-02-25 07:02:00,32.0,31.0,29.99,NE,46,2.0,2.0,95,0.00,,,0.01,,2013-02-25 13:02:00,
2013-02-25 07:12:00,32.0,31.0,29.99,NE,46,2.0,2.0,95,0.00,,,0.01,,2013-02-25 13:12:00,
2013-02-25 07:22:00,32.0,31.0,29.99,NE,46,2.0,2.0,95,0.00,,,0.01,,2013-02-25 13:22:00,
2013-02-25 07:32:00,32.0,31.0,29.99,NE,46,2.0,2.0,95,0.00,,,0.01,,2013-02-25 13:32:00,
2013-02-25 07:42:00,32.0,31.0,29.99,NE,46,2.0,2.0,95,0.00,,,0.01,,2013-02-25 13:42:00,
2013-02-25 07:52:00,32.0,31.0,30.00,NE,46,2.0,2.0,95,0.00,,,0.01,,2013-02-25 13:52:00,
2013-02-25 08:03:00,32.0,31.0,29.99,NE,46,2.0,2.0,95,0.00,,,0.01,,2013-02-25 14:03:00,
2013-02-25 08:17:00,32.0,31.0,29.99,NE,46,2.0,2.0,95,0.00,,,0.01,,2013-02-25 14:17:00,
2013-02-25 08:32:00,32.0,31.0,29.99,NE,46,2.0,2.0,95,0.00,,,0.01,,2013-02-25 14:32:00,
2013-02-25 08:42:00,32.0,31.0,29.99,NE,46,2.0,2.0,95,0.00,,,0.01,,2013-02-25 14:42:00,
2013-02-25 08:52:00,32.0,31.0,30.00,ENE,75,3.0,8.0,96,0.00,,,0.01,,2013-02-25 14:52:00,
2013-02-25 09:02:00,32.0,31.0,30.00,ENE,75,3.0,8.0,96,0.00,,,0.01,,2013-02-25 15:02:00,
2013-02-25 09:11:00,32.0,31.0,30.00,ENE,75,3.0,8.0,96,0.00,,,0.01,,2013-02-25 15:11:00,
2013-02-25 09:21:00,32.0,31.0,30.01,North,353,3.0,11.0,96,0.00,,,0.01,,2013-02-25 15:21:00,
2013-02-25 09:32:00,33.0,32.0,30.01,ESE,103,2.0,8.0,95,0.00,,,0.01,,2013-02-25 15:32:00,
2013-02-25 09:42:00,33.0,32.0,30.01,ESE,103,2.0,8.0,95,0.00,,,0.01,,2013-02-25 15:42:00,
2013-02-25 09:52:00,33.0,32.0,30.01,NE,38,2.0,9.0,95,0.00,,,0.01,,2013-02-25 15:52:00,
2013-02-25 10:01:00,33.0,31.0,30.01,ENE,57,7.0,9.0,94,0.00,,,0.01,,2013-02-25 16:01:00,
2013-02-25 10:11:00,33.0,31.0,30.01,ENE,57,7.0,9.0,94,0.00,,,0.01,,2013-02-25 16:11:00,
2013-02-25 10:21:00,33.0,31.0,29.99,ENE,73,5.0,11.0,93,0.00,,,0.01,,2013-02-25 16:21:00,
2013-02-25 10:31:00,33.0,31.0,29.99,ENE,73,5.0,11.0,93,0.00,,,0.01,,2013-02-25 16:31:00,
2013-02-25 10:42:00,33.0,31.0,29.99,ENE,73,5.0,11.0,93,0.00,,,0.01,,2013-02-25 16:42:00,
2013-02-25 10:52:00,33.0,31.0,29.99,ENE,73,5.0,11.0,93,0.00,,,0.01,,2013-02-25 16:52:00,
2013-02-25 11:32:00,35.0,32.0,29.97,NE,41,4.0,14.0,89,0.00,,,0.01,,2013-02-25 17:32:00,
2013-02-25 11:42:00,35.0,32.0,29.97,NE,41,4.0,14.0,89,0.00,,,0.01,,2013-02-25 17:42:00,
2013-02-25 11:52:00,35.0,32.0,29.99,NE,48,7.0,18.0,88,0.00,,,0.01,,2013-02-25 17:52:00,
2013-02-25 12:01:00,35.0,32.0,29.97,NE,56,12.0,17.0,88,0.00,,,0.01,,2013-02-25 18:01:00,
2013-02-25 12:12:00,35.0,32.0,29.97,NE,56,12.0,17.0,88,0.00,,,0.01,,2013-02-25 18:12:00,
2013-02-25 12:21:00,35.0,32.0,29.97,NE,56,12.0,17.0,88,0.00,,,0.01,,2013-02-25 18:21:00,
2013-02-25 12:32:00,35.0,32.0,29.97,NE,56,12.0,17.0,88,0.00,,,0.01,,2013-02-25 18:32:00,
2013-02-25 12:41:00,35.0,32.0,29.97,NE,56,12.0,17.0,88,0.00,,,0.01,,2013-02-25 18:41:00,
2013-02-25 12:52:00,35.0,32.0,29.96,ENE,59,6.0,14.0,88,0.00,,,0.00,,2013-02-25 18:52:00,
2013-02-25 13:01:00,36.0,33.0,29.96,NE,54,6.0,15.0,87,0.00,,,0.00,,2013-02-25 19:01:00,
2013-02-25 13:11:00,36.0,33.0,29.96,NE,54,6.0,15.0,87,0.00,,,0.00,,2013-02-25 19:11:00,
2013-02-25 13:21:00,36.0,33.0,29.96,NE,54,6.0,15.0,87,0.00,,,0.00,,2013-02-25 19:21:00,
2013-02-25 13:31:00,36.0,32.0,29.94,NNE,26,12.0,14.0,85,0.01,,,0.01,,2013-02-25 19:31:00,
2013-02-25 13:41:00,36.0,32.0,29.94,NNE,26,12.0,14.0,85,0.01,,,0.01,,2013-02-25 19:41:00,
2013-02-25 13:52:00,36.0,32.0,29.94,ENE,70,3.0,13.0,86,0.03,,,0.03,,2013-02-25 19:52:00,
2013-02-25 14:01:00,36.0,32.0,29.94,ENE,78,8.0,13.0,85,0.04,,,0.04,,2013-02-25 20:01:00,
2013-02-25 14:11:00,36.0,32.0,29.94,ENE,78,8.0,13.0,85,0.04,,,0.04,,2013-02-25 20:11:00,
2013-02-25 14:21:00,36.0,32.0,29.94,NE,51,5.0,14.0,85,0.05,,,0.05,,2013-02-25 20:21:00,
2013-02-25 14:31:00,36.0,32.0,29.93,ENE,63,3.0,14.0,85,0.06,,,0.07,,2013-02-25 20:31:00,
2013-02-25 14:41:00,36.0,32.0,29.93,ENE,63,3.0,14.0,85,0.06,,,0.07,,2013-02-25 20:41:00,
2013-02-25 14:52:00,36.0,32.0,29.92,NE,46,2.0,11.0,86,0.05,,,0.08,,2013-02-25 20:52:00,
2013-02-25 15:01:00,36.0,32.0,29.91,West,277,4.0,16.0,85,0.05,,,0.09,,2013-02-25 21:01:00,
2013-02-25 15:11:00,36.0,32.0,29.91,West,277,4.0,16.0,85,0.05,,,0.09,,2013-02-25 21:11:00,
2013-02-25 15:21:00,36.0,32.0,29.92,NNE,20,4.0,16.0,85,0.06,,,0.11,,2013-02-25 21:21:00,
2013-02-25 15:31:00,36.0,32.0,29.91,NE,52,7.0,15.0,84,0.05,,,0.12,,2013-02-25 21:31:00,
2013-02-25 15:42:00,36.0,32.0,29.91,NE,52,7.0,15.0,84,0.05,,,0.12,,2013-02-25 21:42:00,
2013-02-25 15:52:00,36.0,31.0,29.91,NE,39,10.0,16.0,83,0.05,,,0.13,,2013-02-25 21:52:00,
2013-02-25 16:01:00,36.0,31.0,29.91,ENE,75,9.0,16.0,83,0.05,,,0.14,,2013-02-25 22:01:00,
2013-02-25 16:11:00,36.0,31.0,29.91,ENE,75,9.0,16.0,83,0.05,,,0.14,,2013-02-25 22:11:00,
2013-02-25 16:21:00,36.0,32.0,29.89,ENE,63,5.0,14.0,84,0.04,,,0.15,,2013-02-25 22:21:00,
2013-02-25 16:32:00,36.0,31.0,29.89,NNW,331,2.0,14.0,83,0.03,,,0.15,,2013-02-25 22:32:00,
2013-02-25 16:42:00,36.0,31.0,29.89,NNW,331,2.0,14.0,83,0.03,,,0.15,,2013-02-25 22:42:00,
2013-02-25 16:52:00,36.0,31.0,29.89,NNW,331,2.0,14.0,83,0.03,,,0.15,,2013-02-25 22:52:00,
2013-02-25 17:01:00,37.0,32.0,29.87,NNE,20,5.0,13.0,82,0.03,,,0.17,,2013-02-25 23:01:00,
2013-02-25 17:11:00,37.0,32.0,29.87,NNE,20,5.0,13.0,82,0.03,,,0.17,,2013-02-25 23:11:00,
2013-02-25 17:22:00,37.0,32.0,29.87,NNE,12,8.0,14.0,82,0.02,,,0.17,,2013-02-25 23:22:00,
2013-02-25 17:31:00,37.0,32.0,29.87,NNE,12,8.0,14.0,82,0.02,,,0.17,,2013-02-25 23:31:00,
2013-02-25 17:41:00,37.0,32.0,29.87,NNE,12,8.0,14.0,82,0.02,,,0.17,,2013-02-25 23:41:00,
2013-02-25 17:52:00,36.0,31.0,29.86,SE,143,5.0,15.0,81,0.02,,,0.18,,2013-02-25 23:52:00,
2013-02-25 18:01:00,36.0,31.0,29.86,SE,143,5.0,15.0,81,0.02,,,0.18,,2013-02-26 00:01:00,
2013-02-25 18:12:00,36.0,31.0,29.86,SE,143,5.0,15.0,81,0.02,,,0.18,,2013-02-26 00:12:00,
2013-02-25 18:22:00,36.0,30.0,29.86,NE,44,9.0,15.0,80,0.02,,,0.19,,2013-02-26 00:22:00,
2013-02-25 18:32:00,35.0,30.0,29.85,NE,38,8.0,14.0,81,0.01,,,0.19,,2013-02-26 00:32:00,
2013-02-25 18:42:00,35.0,30.0,29.85,NE,38,8.0,14.0,81,0.01,,,0.19,,2013-02-26 00:42:00,
2013-02-25 18:52:00,35.0,30.0,29.85,NW,326,5.0,16.0,81,0.01,,,0.19,,2013-02-26 00:52:00,
2013-02-25 19:02:00,35.0,30.0,29.86,North,354,5.0,15.0,81,0.00,,,0.19,,2013-02-26 01:02:00,
2013-02-25 19:11:00,35.0,30.0,29.86,North,354,5.0,15.0,81,0.00,,,0.19,,2013-02-26 01:11:00,
2013-02-25 19:21:00,35.0,30.0,29.86,North,354,5.0,15.0,81,0.00,,,0.19,,2013-02-26 01:21:00,
2013-02-25 19:31:00,34.0,29.0,29.84,NNW,347,7.0,16.0,82,0.00,,,0.19,,2013-02-26 01:31:00,
2013-02-25 19:41:00,34.0,29.0,29.84,NNW,347,7.0,16.0,82,0.00,,,0.19,,2013-02-26 01:41:00,
2013-02-25 19:52:00,34.0,29.0,29.84,NNE,15,11.0,17.0,82,0.00,,,0.19,,2013-02-26 01:52:00,
2013-02-25 20:01:00,34.0,29.0,29.83,NW,304,8.0,13.0,82,0.00,,,0.19,,2013-02-26 02:01:00,
2013-02-25 20:11:00,34.0,29.0,29.83,NW,304,8.0,13.0,82,0.00,,,0.19,,2013-02-26 02:11:00,
2013-02-25 20:21:00,34.0,29.0,29.83,WNW,297,4.0,13.0,82,0.00,,,0.19,,2013-02-26 02:21:00,
2013-02-25 20:32:00,34.0,29.0,29.86,NE,45,5.0,12.0,82,0.00,,,0.19,,2013-02-26 02:32:00,
2013-02-25 20:41:00,34.0,29.0,29.86,NE,45,5.0,12.0,82,0.00,,,0.19,,2013-02-26 02:41:00,
2013-02-25 20:52:00,34.0,29.0,29.88,ENE,68,1.0,9.0,82,0.00,,,0.19,,2013-02-26 02:52:00,
2013-02-25 21:01:00,34.0,29.0,29.88,ENE,68,1.0,9.0,82,0.00,,,0.19,,2013-02-26 03:01:00,
2013-02-25 21:11:00,34.0,29.0,29.88,ENE,68,1.0,9.0,82,0.00,,,0.19,,2013-02-26 03:11:00,
2013-02-25 21:21:00,34.0,29.0,29.89,NNW,345,4.0,12.0,83,0.00,,,0.19,,2013-02-26 03:21:00,
2013-02-25 21:32:00,34.0,29.0,29.88,ENE,68,5.0,11.0,82,0.00,,,0.19,,2013-02-26 03:32:00,
2013-02-25 21:42:00,34.0,29.0,29.88,ENE,68,5.0,11.0,82,0.00,,,0.19,,2013-02-26 03:42:00,
2013-02-25 21:52:00,34.0,29.0,29.88,ENE,68,5.0,11.0,82,0.00,,,0.19,,2013-02-26 03:52:00,
2013-02-25 22:01:00,34.0,29.0,29.88,ENE,68,5.0,11.0,82,0.00,,,0.19,,2013-02-26 04:01:00,
2013-02-25 22:11:00,34.0,29.0,29.88,ENE,68,5.0,11.0,82,0.00,,,0.19,,2013-02-26 04:11:00,
2013-02-25 22:22:00,34.0,29.0,29.90,NW,318,2.0,9.0,82,0.00,,,0.19,,2013-02-26 04:22:00,
2013-02-25 22:32:00,34.0,29.0,29.91,NE,46,7.0,10.0,83,0.00,,,0.19,,2013-02-26 04:32:00,
2013-02-25 22:42:00,34.0,29.0,29.91,NE,46,7.0,10.0,83,0.00,,,0.19,,2013-02-26 04:42:00,
2013-02-25 22:52:00,33.0,29.0,29.90,NW,321,4.0,11.0,85,0.00,,,0.19,,2013-02-26 04:52:00,
2013-02-25 23:01:00,33.0,29.0,29.89,NW,326,3.0,10.0,85,0.00,,,0.19,,2013-02-26 05:01:00,
2013-02-25 23:11:00,33.0,29.0,29.89,NW,314,4.0,9.0,85,0.00,,,0.19,,2013-02-26 05:11:00,
2013-02-25 23:21:00,33.0,29.0,29.89,NW,314,4.0,9.0,85,0.00,,,0.19,,2013-02-26 05:21:00,
2013-02-25 23:31:00,32.0,28.0,29.88,North,8,3.0,13.0,86,0.00,,,0.19,,2013-02-26 05:31:00,
2013-02-25 23:42:00,32.0,28.0,29.88,North,8,3.0,13.0,86,0.00,,,0.19,,2013-02-26 05:42:00,
2013-02-25 23:52:00,32.0,28.0,29.86,NW,320,4.0,15.0,86,0.00,,,0.19,,2013-02-26 05:52:00,